[[{"header":{"parameterUnit":"m.s-1","parameterCategory":1,"la1":30.2991,"la2":30.254,"lo1":-89.0895,"lo2":-89.0444,"dy":0.0017,"dx":0.0017,"nx":28,"ny":28,"refTime":"2025-01-30T09:00:00:Z","depth":0,"parameterNumber":2,"parameterNumberName":"U-component_of_WINDS"},"data":[0,0,0,0,0,0,0,0,0,0,0,0,0,0,0,0,0,0,0,0,0,0,0,0,0,0,0,0,0,0,0,0,0,0,0,0,0,0,0,0,0,0,0,0,0,0,0,0,0,0,0,0,0,0,0,0,0,0,-3.7964,-3.7966,0,-3.8097,-3.8099,-3.81,-3.8127,-3.8125,-3.8124,-3.8123,-3.826,-3.8265,-3.8269,0,0,0,0,0,0,0,0,0,0,0,0,0,-3.7734,-3.7739,-3.7964,-3.7966,-3.7968,-3.8097,-3.8099,-3.8101,-3.8127,-3.8125,-3.8124,-3.8123,-3.8259,-3.8264,-3.827,0,0,0,0,0,0,0,0,0,0,0,0,0,-3.7847,-3.774,-3.7964,-3.7996,-3.8,-3.8097,-3.8099,-3.8101,-3.8127,-3.8125,-3.8124,-3.8122,-3.8257,-3.8264,-3.8271,-3.8344,0,0,-3.8292,-3.8295,0,0,0,0,0,0,0,0,-3.7841,-3.7856,-3.799,-3.7994,-3.7999,-3.8094,-3.8068,-3.8183,-3.8127,-3.8079,-3.8123,-3.8122,-3.8206,-3.8217,-3.8246,-3.8351,-3.8357,-3.8292,-3.8297,-3.8299,-3.8301,0,0,0,0,0,0,0,-3.7833,-3.785,-3.8017,-3.7992,-3.7997,-3.8004,-3.8019,-3.809,-3.815,-3.8083,-3.8085,-3.8101,-3.8208,-3.8239,-3.8249,-3.8359,-3.8292,-3.8298,-3.8303,-3.8305,-3.8531,-3.8533,0,0,0,0,0,0,-3.7819,-3.7844,-3.8013,-3.8021,-3.7915,-3.801,-3.8026,-3.8065,-3.8149,-3.816,-3.8102,-3.8101,-3.8228,-3.8241,-3.8254,-3.8345,-3.8299,-3.8306,-3.831,-3.8529,-3.8531,-3.8533,0,0,0,0,0,0,-3.7814,-3.7834,-3.8007,-3.7933,-3.7956,-3.8015,-3.8059,-3.8068,-3.8099,-3.8163,-3.8174,-3.8122,-3.8227,-3.8244,-3.8322,-3.835,-3.8309,-3.8315,-3.8527,-3.853,-3.8532,-3.8528,0,0,0,0,0,0,-3.7808,-3.7832,-3.786,-3.7933,-3.7959,-3.8072,-3.8061,-3.8072,-3.811,-3.8111,-3.8185,-3.8195,-3.8227,-3.8311,-3.8328,-3.8359,-3.8321,-3.8525,-3.8528,-3.8531,-3.8526,-3.853,-3.8534,0,0,0,0,0,-3.7799,-3.7854,-3.7862,-3.7882,-3.7996,-3.8074,-3.8089,-3.8124,-3.8113,-3.8142,-3.8183,-3.8193,-3.8345,-3.8319,-3.8339,-3.8371,-3.8523,-3.8527,-3.8531,-3.8524,-3.8529,-3.8534,0,0,0,0,0,0,-3.7783,-3.7864,-3.7874,-3.7954,-3.8007,-3.8078,-3.8115,-3.8129,-3.8186,-3.8184,-3.8226,-3.8242,-3.8317,-3.8353,-3.8322,-3.8447,-3.8433,-3.8441,-3.8421,-3.8427,-3.8431,-3.8419,-3.8326,0,0,0,0,0,-3.7789,-3.7845,-3.7913,-3.7977,-3.8003,-3.8055,-3.809,-3.8113,-3.8169,-3.8192,-3.8239,-3.8294,-3.8354,-3.8393,-3.8452,-3.8532,-3.8548,-3.8564,-3.8569,-3.8572,-3.8578,-3.8622,-3.863,-3.8547,-3.8547,-3.8547,0,0,-3.7801,-3.7853,-3.7885,-3.7975,-3.8019,-3.8076,-3.8073,-3.8134,-3.8177,-3.8202,-3.8277,-3.8314,-3.8378,-3.8457,-3.8494,-3.8488,-3.8604,-3.8577,-3.8579,-3.8583,-3.8627,-3.8635,-3.8642,-3.855,-3.8549,-3.8549,0,0,-3.7852,-3.7897,-3.7955,-3.7999,-3.8065,-3.8099,-3.8113,-3.8183,-3.8209,-3.8285,-3.8304,-3.8357,-3.8459,-3.8504,-3.854,-3.861,-3.8621,-3.8628,-3.8649,-3.8691,-3.8698,-3.8704,-3.8727,-3.8735,-3.8634,-3.8634,-3.8634,0,-3.7859,-3.7946,-3.7983,-3.8043,-3.8082,-3.8107,-3.8166,-3.8207,-3.8289,-3.8315,-3.8309,-3.8438,-3.8483,-3.8572,-3.8589,-3.8618,-3.8635,-3.8618,-3.8694,-3.87,-3.8706,-3.8729,-3.8738,-3.8635,-3.8635,-3.8635,-3.8634,0,-3.795,-3.801,-3.8049,-3.8127,-3.8171,-3.823,-3.8277,-3.8317,-3.8336,-3.8371,-3.8449,-3.8504,-3.8574,-3.8598,-3.8617,-3.869,-3.8684,-3.8686,-3.8672,-3.8714,-3.8736,-3.8745,-3.8635,-3.8635,-3.8635,-3.8635,0,0,-3.7993,-3.8092,-3.8105,-3.8141,-3.8216,-3.8263,-3.8324,-3.8393,-3.8425,-3.8482,-3.8534,-3.8621,-3.8622,-3.8663,-3.8689,-3.8727,-3.8777,-3.8723,-3.8725,-3.8729,-3.8859,-3.8856,-3.8866,-3.8786,-3.8787,-3.8789,-3.8853,0,-3.8052,-3.8159,-3.8195,-3.8285,-3.8341,-3.8366,-3.8419,-3.8471,-3.8506,-3.8559,-3.8598,-3.8658,-3.8656,-3.8681,-3.872,-3.8762,-3.8803,-3.8758,-3.8833,-3.8835,-3.8814,-3.8877,-3.8875,-3.8932,-3.8862,-3.8864,-3.8865,0,-3.8134,-3.8191,-3.8286,-3.8354,-3.8379,-3.8426,-3.8491,-3.8542,-3.8602,-3.8625,-3.8671,-3.8694,-3.8759,-3.8743,-3.8833,-3.8802,-3.8835,-3.8861,-3.8864,-3.887,-3.8851,-3.8884,-3.8952,-3.8959,-3.8879,-3.8878,-3.8877,0,-3.8153,-3.8254,-3.8324,-3.8354,-3.8436,-3.8468,-3.8504,-3.8563,-3.8602,-3.866,-3.8685,-3.875,-3.8786,-3.8836,-3.8876,-3.8861,-3.8962,-3.8949,-3.8982,-3.8981,-3.9,-3.8997,-3.9072,-3.9025,-3.9024,-3.9024,-3.9024,0,-3.8214,-3.827,-3.8333,-3.8376,-3.844,-3.8482,-3.8545,-3.8583,-3.8635,-3.8685,-3.8713,-3.876,-3.881,-3.8865,-3.8897,-3.8965,-3.8982,-3.9002,-3.9009,-3.8998,-3.8995,-3.9019,-3.9015,-3.9027,-3.9026,-3.9026,-3.9025,0,-3.8245,-3.8289,-3.8367,-3.8438,-3.8458,-3.8502,-3.8564,-3.8606,-3.8643,-3.8707,-3.8724,-3.8782,-3.8847,-3.8892,-3.8976,-3.8998,-3.9071,-3.908,-3.905,-3.9054,-3.9083,-3.9079,-3.9173,-3.9187,-3.9132,-3.9133,-3.9133,0,-3.8279,-3.8323,-3.84,-3.8435,-3.8471,-3.8528,-3.8568,-3.8612,-3.8652,-3.8724,-3.8758,-3.8825,-3.888,-3.8983,-3.9033,-3.9097,-3.9106,-3.9135,-3.9116,-3.9103,-3.9104,-3.91,-3.9104,-3.9136,-3.9137,-3.9137,-3.9137,0,-3.8335,-3.8355,-3.8411,-3.8475,-3.8522,-3.8574,-3.8627,-3.8655,-3.8708,-3.8752,-3.8819,-3.8862,-3.8948,-3.9013,-3.9083,-3.912,-3.9138,-3.9144,-3.9154,-3.9142,-3.9123,-3.9132,-3.9056,-3.9141,-3.914,-3.914,-3.914,-3.914,-3.8368,-3.8408,-3.8468,-3.8529,-3.8574,-3.8623,-3.8666,-3.8708,-3.8764,-3.8837,-3.886,-3.8928,-3.8989,-3.9083,-3.9122,-3.9177,-3.9175,-3.9191,-3.9194,-3.9197,-3.9196,-3.9116,-3.919,-3.919,-3.919,-3.919,-3.919,0,-3.8424,-3.8464,-3.852,-3.8593,-3.8641,-3.8654,-3.8714,-3.8753,-3.8813,-3.8868,-3.8922,-3.8998,-3.9063,-3.9118,-3.9185,-3.9218,-3.9228,-3.9234,-3.9231,-3.9239,-3.9195,-3.9178,-3.9225,-3.9225,-3.9225,-3.9225,-3.9225,-3.9225,-3.8458,-3.8526,-3.8554,-3.8644,-3.8685,-3.8751,-3.8784,-3.883,-3.8873,-3.8957,-3.901,-3.9046,-3.9101,-3.9172,-3.9232,-3.9247,-3.9269,-3.9273,-3.9289,-3.9246,-3.9242,-3.9238,-3.9223,-3.9278,-3.9278,-3.9329,-3.933,-3.933]},{"header":{"parameterUnit":"m.s-1","parameterCategory":1,"la1":30.2991,"la2":30.254,"lo1":-89.0895,"lo2":-89.0444,"dy":0.0017,"dx":0.0017,"nx":28,"ny":28,"refTime":"2025-01-30T09:00:00:Z","depth":0,"parameterNumber":3,"parameterNumberName":"V-component_of_WINDS"},"data":[0,0,0,0,0,0,0,0,0,0,0,0,0,0,0,0,0,0,0,0,0,0,0,0,0,0,0,0,0,0,0,0,0,0,0,0,0,0,0,0,0,0,0,0,0,0,0,0,0,0,0,0,0,0,0,0,0,0,1.9936,1.9937,0,2.0009,2.001,2.0011,2.0051,2.0051,2.0051,2.0051,2.0128,2.013,2.0132,0,0,0,0,0,0,0,0,0,0,0,0,0,1.9834,1.9836,1.9936,1.9937,1.9938,2.0009,2.001,2.0011,2.0051,2.0051,2.0051,2.0051,2.0128,2.013,2.0132,0,0,0,0,0,0,0,0,0,0,0,0,0,1.989,1.9836,1.9936,1.9966,1.997,2.0009,2.001,2.0011,2.0051,2.0051,2.0051,2.0051,2.0127,2.013,2.0133,2.0148,0,0,2.0141,2.0143,0,0,0,0,0,0,0,0,1.9887,1.9894,1.9961,1.9964,1.9968,2.0021,2.0002,2.0057,2.0051,2.002,2.0051,2.0051,2.0093,2.0098,2.0112,2.0151,2.0154,2.0142,2.0144,2.0145,2.0146,0,0,0,0,0,0,0,1.9883,1.9891,1.9965,1.9962,1.9966,1.9977,1.9985,2.0013,2.0055,2.0023,2.0026,2.0034,2.0095,2.0109,2.0114,2.0156,2.0142,2.0144,2.0146,2.0147,2.0213,2.0213,0,0,0,0,0,0,1.9874,1.9887,1.9963,1.9967,1.9927,1.9979,1.9988,2.0004,2.0054,2.0062,2.0034,2.0035,2.0104,2.011,2.0117,2.0139,2.0145,2.0147,2.0149,2.0213,2.0213,2.0213,0,0,0,0,0,0,1.9871,1.988,1.996,1.9928,1.9939,1.9981,1.9998,2.0005,2.0019,2.0063,2.0071,2.004,2.0104,2.0113,2.014,2.0142,2.0149,2.0151,2.0213,2.0213,2.0213,2.0183,0,0,0,0,0,0,1.9868,1.9879,1.9884,1.9928,1.9941,1.998,1.9998,2.0007,2.0024,2.0027,2.0071,2.0078,2.0105,2.0135,2.0143,2.0146,2.0154,2.0213,2.0213,2.0213,2.0184,2.0182,2.018,0,0,0,0,0,1.9865,1.9873,1.9884,1.9893,1.9948,1.998,1.9988,2.0018,2.0024,2.0031,2.0059,2.0077,2.0141,2.0138,2.0147,2.0151,2.0213,2.0213,2.0213,2.0184,2.0182,2.018,0,0,0,0,0,0,1.9829,1.9879,1.9892,1.9915,1.9943,1.9987,1.9996,2.0014,2.0041,2.0043,2.008,2.0089,2.0113,2.0135,2.0131,2.0169,2.0179,2.0181,2.0154,2.0152,2.015,2.0145,2.0156,0,0,0,0,0,1.9823,1.9845,1.9888,1.9903,1.9917,1.9954,1.9969,1.999,2.0021,2.0033,2.0063,2.0093,2.0121,2.0137,2.0165,2.0187,2.0198,2.0195,2.0193,2.0191,2.0192,2.0207,2.0207,2.0213,2.0213,2.0213,0,0,1.9813,1.9843,1.9854,1.9897,1.9921,1.9944,1.9964,1.9986,2.0004,2.0037,2.0065,2.0088,2.0124,2.0149,2.0162,2.0168,2.0193,2.0191,2.0189,2.0191,2.0207,2.0206,2.0206,2.0213,2.0213,2.0213,0,0,1.9805,1.9829,1.9845,1.9869,1.9906,1.9931,1.9935,1.9977,1.9993,2.0021,2.0047,2.0069,2.0114,2.014,2.0158,2.0162,2.018,2.017,2.016,2.0174,2.0174,2.0173,2.0176,2.0176,2.0171,2.017,2.017,0,1.9787,1.9821,1.9852,1.9873,1.9892,1.9923,1.9941,1.9963,2.0006,2.0019,2.0025,2.0084,2.0111,2.0143,2.0144,2.0158,2.0165,2.0165,2.0171,2.0171,2.0171,2.0174,2.0175,2.0169,2.0169,2.0169,2.0169,0,1.9798,1.9821,1.983,1.9871,1.9891,1.9911,1.9946,1.9963,1.9982,2.0006,2.0036,2.0069,2.0104,2.0113,2.0132,2.0149,2.0152,2.0164,2.0174,2.0169,2.0172,2.0173,2.0167,2.0167,2.0168,2.0168,0,0,1.9769,1.9828,1.9831,1.985,1.9893,1.9913,1.9934,1.9968,1.9982,2.0012,2.0032,2.007,2.0082,2.0104,2.0126,2.0138,2.0141,2.0149,2.0151,2.0147,2.0163,2.0154,2.0154,2.0153,2.0153,2.0154,2.016,0,1.9768,1.9807,1.9836,1.9865,1.9888,1.9918,1.9937,1.9967,1.999,2.0014,2.0041,2.0068,2.0081,2.0094,2.0108,2.0137,2.0144,2.0137,2.0173,2.0174,2.0164,2.0156,2.0146,2.0151,2.0161,2.0162,2.0162,0,1.9772,1.98,1.9831,1.9873,1.9884,1.99,1.9935,1.9956,1.9991,2.0008,2.0032,2.0055,2.0081,2.0089,2.0126,2.012,2.0137,2.0154,2.0155,2.016,2.0168,2.0161,2.0153,2.0154,2.0164,2.0164,2.0164,0,1.9749,1.9795,1.982,1.9836,1.9885,1.9896,1.9917,1.9952,1.9971,2.0001,2.0014,2.0047,2.0065,2.0091,2.0123,2.0126,2.0157,2.0168,2.0173,2.0172,2.0178,2.0178,2.0173,2.0188,2.0188,2.0188,2.0188,0,1.9746,1.9764,1.9811,1.9826,1.9847,1.9881,1.9902,1.9926,1.9957,1.9978,2.0007,2.0026,2.0067,2.0092,2.0118,2.0145,2.0153,2.0168,2.0175,2.0166,2.0164,2.0178,2.0179,2.0188,2.0188,2.0188,2.0188,0,1.9724,1.9756,1.9785,1.9829,1.9841,1.9855,1.9894,1.9911,1.9936,1.9963,1.9972,2.0012,2.0044,2.0078,2.0121,2.0138,2.0164,2.0173,2.0152,2.0156,2.016,2.0159,2.0164,2.0167,2.0179,2.0179,2.0179,0,1.972,1.9735,1.978,1.9796,1.9817,1.9842,1.9862,1.9896,1.9916,1.9957,1.9969,2.0002,2.0031,2.008,2.0114,2.0147,2.0158,2.0157,2.0163,2.0154,2.0159,2.0158,2.016,2.0156,2.0155,2.0155,2.0155,0,1.971,1.9725,1.9751,1.9784,1.9806,1.9834,1.9862,1.9874,1.9915,1.9935,1.9967,1.9989,2.0033,2.0067,2.0104,2.0128,2.0149,2.0153,2.0156,2.0147,2.0135,2.0143,2.0148,2.0153,2.0153,2.0153,2.0153,2.0153,1.9698,1.9712,1.9747,1.9776,1.9801,1.9828,1.9846,1.9874,1.9901,1.9939,1.9958,1.999,2.0026,2.0079,2.0102,2.0128,2.0135,2.0139,2.014,2.0141,2.0139,2.013,2.0135,2.0135,2.0136,2.0136,2.0136,0,1.969,1.9714,1.974,1.9779,1.9802,1.9819,1.9852,1.9871,1.9898,1.993,1.9957,1.9995,2.0028,2.0064,2.01,2.0114,2.0125,2.0122,2.0122,2.0127,2.0131,2.0125,2.0113,2.0113,2.0113,2.0113,2.0113,2.0113,1.9688,1.9715,1.9734,1.9774,1.9798,1.9829,1.9847,1.9872,1.9897,1.9938,1.9965,1.9988,2.0022,2.0061,2.0092,2.0102,2.0114,2.0109,2.0122,2.0125,2.0127,2.0129,2.0123,2.0111,2.0111,2.0117,2.0117,2.0117]}]]